Weather History for PAWD - January, 2013

Change the Weather History Date:

Wednesday, January 9, 2013

  Actual Average Record
Temperature  
Mean Temperature 28 °F -  
Max Temperature 32 °F 30 °F 46 °F (1962)
Min Temperature 24 °F 21 °F -5 °F (1975)
Degree Days  
Heating Degree Days 37    
Moisture  
Dew Point 21 °F    
Average Humidity 80    
Maximum Humidity 96    
Minimum Humidity 61    
Precipitation  
Precipitation 0.00 in - - ()
Sea Level Pressure  
Sea Level Pressure 30.00 in    
Wind  
Wind Speed 10 mph (North)    
Max Wind Speed 15 mph    
Max Gust Speed 24 mph    
Visibility 8 miles    
Events Snow    
Averages and records for this station are not official NWS values.
T = Trace of Precipitation, MM = Missing Value Source: NWS Daily Summary

Daily Weather History Graph

Daily Weather History Graph

Search for Another Location

Airport or City:

Trip Planner

Search our weather history database for the weather conditions in past years. The results will help you decide how hot, cold, wet, or windy it might be!

Date:

Astronomy

Jan. 09, 2013 Rise Set
Actual Time 9:53 AM AKST 4:16 PM AKST
Civil Twilight 8:58 AM AKST 5:11 PM AKST
Nautical Twilight 8:03 AM AKST 6:06 PM AKST
Astronomical Twilight 7:12 AM AKST 6:57 PM AKST
Moon 7:45 AM AKST (1/9) 2:27 PM AKST (1/9)
Length of Visible Light 8h 12m
Length of Day
6h 23m
Waning Crescent, 5% of the Moon is Illuminated
Jan 9
Waning Crescent
Jan 11
New
Jan 18
First Quarter
Jan 26
Full
Feb 3
Last Quarter

Hourly Weather History & Observations

Time (AKST) Temp. Windchill Dew Point Humidity Pressure Visibility Wind Dir Wind Speed Gust Speed Precip Events Conditions
12:53 AM 32.0 °F 22.1 °F 19.9 °F 61% 29.97 in 10.0 mi NNE 13.8 mph 23.0 mph N/A   Clear
1:53 AM 30.0 °F 20.0 °F 19.9 °F 66% 29.97 in 10.0 mi NNE 12.7 mph - N/A   Clear
3:53 AM 28.0 °F 18.1 °F 19.9 °F 72% 30.01 in 10.0 mi NNE 11.5 mph 19.6 mph N/A   Clear
4:53 AM 27.0 °F 16.1 °F 19.9 °F 75% 30.02 in 10.0 mi NNE 12.7 mph - N/A   Clear
5:53 AM 26.1 °F 14.0 °F 19.9 °F 78% 30.02 in 10.0 mi NNE 15.0 mph 20.7 mph N/A   Clear
6:53 AM 27.0 °F 15.2 °F 19.0 °F 72% 30.03 in 10.0 mi NNE 15.0 mph 24.2 mph N/A   Clear
7:53 AM 25.0 °F 12.6 °F 19.0 °F 78% 30.02 in 10.0 mi North 15.0 mph 24.2 mph N/A   Clear
8:53 AM 25.0 °F 12.6 °F 19.0 °F 78% 30.04 in 10.0 mi North 15.0 mph 20.7 mph N/A   Clear
9:53 AM 25.0 °F 12.6 °F 18.0 °F 75% 30.05 in 10.0 mi North 15.0 mph - N/A   Clear
10:53 AM 24.1 °F 13.1 °F 18.0 °F 77% 30.05 in 10.0 mi North 11.5 mph - N/A   Clear
11:53 AM 24.1 °F 13.7 °F 18.0 °F 77% 30.05 in 10.0 mi NNE 10.4 mph - N/A   Clear
12:53 PM 25.0 °F 14.2 °F 18.0 °F 75% 30.05 in 10.0 mi North 11.5 mph - N/A   Clear
1:53 PM 25.0 °F 14.2 °F 18.0 °F 75% 30.04 in 10.0 mi North 11.5 mph - N/A   Clear
2:53 PM 26.1 °F 17.6 °F 18.0 °F 71% 30.03 in 10.0 mi NNW 8.1 mph - N/A   Partly Cloudy
3:53 PM 25.0 °F 18.1 °F 19.0 °F 78% 30.02 in 10.0 mi NNW 5.8 mph - N/A   Clear
4:53 PM 24.1 °F 19.7 °F 19.0 °F 81% 30.01 in 10.0 mi North 3.5 mph - N/A   Clear
5:53 PM 25.0 °F - 19.0 °F 78% 30.00 in 10.0 mi Calm Calm - N/A   Partly Cloudy
6:53 PM 24.1 °F 19.7 °F 19.9 °F 84% 29.99 in 10.0 mi NW 3.5 mph - N/A   Clear
7:53 PM 26.1 °F 21.9 °F 21.9 °F 84% 29.98 in 10.0 mi North 3.5 mph - N/A   Overcast
8:53 PM 28.0 °F 22.8 °F 24.1 °F 85% 29.96 in 10.0 mi North 4.6 mph - N/A   Overcast
9:35 PM 28.4 °F - 24.8 °F 86% 29.96 in 3.0 mi Calm Calm - 0.00 in Snow Light Snow
9:41 PM 28.4 °F - 24.8 °F 86% 29.96 in 1.8 mi Calm Calm - 0.00 in Snow Light Snow
9:53 PM 28.0 °F 24.2 °F 25.0 °F 88% 29.96 in 1.2 mi NNE 3.5 mph - 0.00 in Snow Light Snow
10:08 PM 28.4 °F 23.3 °F 24.8 °F 86% 29.96 in 1.2 mi North 4.6 mph - 0.00 in Snow Light Snow
10:53 PM 28.9 °F - 28.0 °F 96% 29.96 in 1.2 mi Calm Calm - 0.00 in Snow Light Snow
11:27 PM 30.2 °F - 28.4 °F 93% 29.95 in 1.0 mi Calm Calm - 0.00 in Snow Light Snow
11:44 PM 30.2 °F 25.4 °F 28.4 °F 93% 29.95 in 1.2 mi NW 4.6 mph - 0.00 in Snow Light Snow
11:53 PM 30.0 °F 26.5 °F 28.0 °F 92% 29.95 in 1.8 mi NNW 3.5 mph - 0.00 in Snow Light Snow